Date String (YYYY-MM-DD hh:mm:ss) UTC,Instrument flags,absolute air pressure of the measurement (hPa),sample flow rate (lpm),inlet stack bypass flow (lpm),air temperature of the measurement (°C),ambient temperature measured by the external sensor (°C),aerosol sample conditioner tube jacket temperature (°C),OPC LED temperature (°C),internal box temperature (°C),relative humidity of the measurement (%),span deviation,mass concentration of particles derived from Lorenz-Mie calculation of OPC scattering (μg/m³),mass concentration of particles derived from Lorenz-Mie calculation of OPC scattering (μg/m³),mass concentration of particles derived from Lorenz-Mie calculation of OPC scattering (μg/m³)
DateTimeUTC,F1_M11,P_M11,Q1_M11,Q2_M11,T1_M11,T2_M11,T3_M11,T4_M11,T5_M11,U1_M11,ZSPAN_M11,X0_M11,X2_M11,X1_M11
2023-08-16 01:00:00,SystemResetWarning,0835.0,5.01,000.00,028.7,025.8,000.0,036.9,030.1,15.7,0000.0,0015.53,0004.22,0003.30
2023-08-16 01:01:00,SystemResetWarning,0834.8,5.00,000.00,028.7,026.2,000.0,037.0,030.3,15.9,0000.0,0015.30,0004.24,0003.31
2023-08-16 01:02:00,SystemResetWarning,0834.8,5.00,000.00,028.7,026.7,000.0,037.0,030.4,16.0,0000.0,0015.62,0004.28,0003.31
2023-08-16 01:03:00,SystemResetWarning,0834.9,5.00,000.00,028.8,027.1,000.0,037.0,030.5,16.2,0000.0,0015.44,0004.33,0003.31
2023-08-16 01:04:00,SystemResetWarning,0834.8,5.00,000.00,028.9,027.4,000.0,037.1,030.7,16.3,0000.0,0015.85,0004.32,0003.31
2023-08-16 01:05:00,SystemResetWarning,0834.7,4.99,000.00,028.9,027.1,000.0,037.1,030.6,16.2,0000.0,0016.13,0004.34,0003.32
2023-08-16 01:06:00,SystemResetWarning,0835.2,4.99,000.00,028.8,025.2,000.0,036.9,030.2,16.2,0000.0,0016.78,0004.37,0003.32
2023-08-16 01:07:00,SystemResetWarning,0835.1,5.01,000.00,028.7,024.7,000.0,036.8,030.0,16.2,0000.0,0015.47,0004.34,0003.31
2023-08-16 01:08:00,SystemResetWarning,0834.6,5.01,000.00,028.7,025.0,000.0,036.9,030.0,16.3,0000.0,0014.93,0004.34,0003.31
2023-08-16 01:09:00,SystemResetWarning,0835.0,5.00,000.00,028.6,025.4,000.0,036.9,030.0,16.3,0000.0,0014.68,0004.32,0003.31
2023-08-16 01:10:00,SystemResetWarning,0835.1,5.00,000.00,028.6,025.9,000.0,036.9,030.1,16.3,0000.0,0014.22,0004.27,0003.30
2023-08-16 01:11:00,SystemResetWarning,0835.1,5.00,000.00,028.7,026.4,000.0,037.0,030.3,16.3,0000.0,0013.89,0004.21,0003.29
2023-08-16 01:12:00,SystemResetWarning,0835.0,5.00,000.00,028.7,026.8,000.0,037.0,030.4,16.2,0000.0,0012.79,0004.16,0003.29
2023-08-16 01:13:00,SystemResetWarning,0834.7,4.99,000.00,028.8,027.2,000.0,037.0,030.6,16.1,0000.0,0012.99,0004.11,0003.28
2023-08-16 01:14:00,SystemResetWarning,0834.9,4.98,000.00,028.9,027.0,000.0,037.0,030.5,16.1,0000.0,0012.60,0004.08,0003.27
2023-08-16 01:15:00,SystemResetWarning,0834.8,5.01,000.00,028.8,025.2,000.0,036.9,030.1,16.1,0000.0,0012.45,0004.12,0003.27
2023-08-16 01:16:00,SystemResetWarning,0835.1,5.00,000.00,028.7,024.5,000.0,036.8,029.9,16.1,0000.0,0012.45,0004.15,0003.27
2023-08-16 01:17:00,SystemResetWarning,0835.0,5.01,000.00,028.6,024.9,000.0,036.8,029.9,16.1,0000.0,0011.75,0004.11,0003.27
2023-08-16 01:18:00,SystemResetWarning,0835.1,5.00,000.00,028.6,025.3,000.0,036.8,029.9,16.2,0000.0,0011.06,0004.10,0003.26
2023-08-16 01:19:00,SystemResetWarning,0835.0,5.00,000.00,028.6,025.8,000.0,036.9,030.1,16.1,0000.0,0010.77,0004.05,0003.25
2023-08-16 01:20:00,SystemResetWarning,0835.0,4.99,000.00,028.6,026.2,000.0,036.9,030.2,16.1,0000.0,0011.07,0004.04,0003.24
2023-08-16 01:21:00,SystemResetWarning,0835.1,4.99,000.00,028.7,026.7,000.0,036.9,030.3,16.1,0000.0,0011.00,0004.05,0003.25
2023-08-16 01:22:00,SystemResetWarning,0835.1,5.00,000.00,028.7,027.1,000.0,037.0,030.5,15.9,0000.0,0011.06,0004.08,0003.26
2023-08-16 01:23:00,SystemResetWarning,0835.1,5.01,000.00,028.8,027.4,000.0,037.0,030.6,15.9,0000.0,0011.10,0004.12,0003.26
2023-08-16 01:24:00,SystemResetWarning,0834.8,5.00,000.00,028.9,027.7,000.0,037.1,030.7,15.9,0000.0,0012.23,0004.19,0003.27
2023-08-16 01:25:00,SystemResetWarning,0834.9,4.98,000.00,028.9,026.7,000.0,037.0,030.4,15.8,0000.0,0012.54,0004.25,0003.29
2023-08-16 01:26:00,SystemResetWarning,0835.2,5.00,000.00,028.8,024.9,000.0,036.9,030.1,15.8,0000.0,0011.80,0004.22,0003.30
2023-08-16 01:27:00,SystemResetWarning,0835.1,5.01,000.00,028.7,024.8,000.0,036.8,030.0,15.6,0000.0,0012.20,0004.21,0003.30
2023-08-16 01:28:00,SystemResetWarning,0835.2,5.01,000.00,028.7,025.1,000.0,036.8,030.0,15.8,0000.0,0012.59,0004.23,0003.31
2023-08-16 01:29:00,SystemResetWarning,0835.2,5.00,000.00,028.6,025.5,000.0,036.9,030.0,15.8,0000.0,0012.62,0004.24,0003.33
2023-08-16 01:30:00,SystemResetWarning,0834.9,5.00,000.00,028.6,026.0,000.0,036.9,030.2,15.6,0000.0,0013.17,0004.28,0003.34
2023-08-16 01:31:00,SystemResetWarning,0834.8,5.00,000.00,028.7,026.5,000.0,037.0,030.3,15.5,0000.0,0013.92,0004.30,0003.35
2023-08-16 01:32:00,SystemResetWarning,0834.7,4.99,000.00,028.7,026.9,000.0,037.0,030.5,15.8,0000.0,0013.82,0004.29,0003.35
2023-08-16 01:33:00,SystemResetWarning,0834.7,5.00,000.00,028.8,027.2,000.0,037.0,030.6,15.6,0000.0,0014.02,0004.26,0003.35
2023-08-16 01:34:00,SystemResetWarning,0834.7,5.00,000.00,028.9,027.5,000.0,037.1,030.7,15.2,0000.0,0014.84,0004.23,0003.36
2023-08-16 01:35:00,SystemResetWarning,0834.7,4.99,000.00,028.9,026.9,000.0,037.0,030.6,15.5,0000.0,0013.66,0004.22,0003.37
2023-08-16 01:36:00,SystemResetWarning,0834.8,4.99,000.00,028.8,025.1,000.0,036.9,030.2,15.9,0000.0,0013.26,0004.25,0003.36
2023-08-16 01:37:00,SystemResetWarning,0834.9,5.02,000.00,028.7,024.6,000.0,036.8,030.0,16.8,0000.0,0013.66,0004.29,0003.36
2023-08-16 01:38:00,SystemResetWarning,0834.9,5.00,000.00,028.7,025.0,000.0,036.8,029.9,17.7,0000.0,0013.98,0004.34,0003.37
2023-08-16 01:39:00,SystemResetWarning,0834.8,5.00,000.00,028.6,025.4,000.0,036.9,029.9,18.0,0000.0,0013.80,0004.34,0003.37
2023-08-16 01:40:00,SystemResetWarning,0834.8,5.00,000.00,028.6,025.9,000.0,036.9,030.1,17.8,0000.0,0013.86,0004.37,0003.38
2023-08-16 01:41:00,SystemResetWarning,0834.7,4.99,000.00,028.7,026.3,000.0,037.0,030.3,17.7,0000.0,0013.28,0004.37,0003.39
2023-08-16 01:42:00,SystemResetWarning,0834.7,5.00,000.00,028.7,026.8,000.0,037.0,030.4,17.6,0000.0,0012.59,0004.38,0003.40
2023-08-16 01:43:00,SystemResetWarning,0834.7,5.00,000.00,028.8,027.1,000.0,037.0,030.5,17.9,0000.0,0012.56,0004.36,0003.40
2023-08-16 01:44:00,SystemResetWarning,0834.8,5.00,000.00,028.8,027.4,000.0,037.0,030.6,17.9,0000.0,0012.24,0004.38,0003.40
2023-08-16 01:45:00,SystemResetWarning,0834.7,5.00,000.00,028.9,027.6,000.0,037.1,030.7,17.6,0000.0,0011.67,0004.43,0003.39
2023-08-16 01:46:00,SystemResetWarning,0834.9,4.98,000.00,028.9,026.3,000.0,037.0,030.3,18.2,0000.0,0012.03,0004.44,0003.38
2023-08-16 01:47:00,SystemResetWarning,0835.0,5.00,000.00,028.8,024.7,000.0,036.9,030.0,17.6,0000.0,0012.39,0004.43,0003.38
2023-08-16 01:48:00,SystemResetWarning,0834.7,5.01,000.00,028.7,024.7,000.0,036.8,030.0,17.0,0000.0,0012.96,0004.40,0003.37
2023-08-16 01:49:00,SystemResetWarning,0834.7,5.02,000.00,028.6,025.1,000.0,036.9,029.9,16.9,0000.0,0013.50,0004.39,0003.35
2023-08-16 01:50:00,SystemResetWarning,0834.7,5.00,000.00,028.6,025.5,000.0,036.9,030.0,16.6,0000.0,0013.37,0004.41,0003.34
2023-08-16 01:51:00,SystemResetWarning,0834.7,5.01,000.00,028.6,026.0,000.0,037.0,030.2,17.3,0000.0,0013.96,0004.40,0003.33
2023-08-16 01:52:00,SystemResetWarning,0834.7,4.99,000.00,028.7,026.4,000.0,037.0,030.3,17.0,0000.0,0014.98,0004.43,0003.32
2023-08-16 01:53:00,SystemResetWarning,0834.7,5.00,000.00,028.7,026.8,000.0,037.0,030.4,17.1,0000.0,0015.74,0004.42,0003.31
2023-08-16 01:54:00,SystemResetWarning,0834.7,5.01,000.00,028.8,027.2,000.0,037.0,030.5,16.7,0000.0,0016.08,0004.42,0003.30
2023-08-16 01:55:00,SystemResetWarning,0834.9,5.00,000.00,028.8,027.5,000.0,037.1,030.7,16.3,0000.0,0016.84,0004.46,0003.31
2023-08-16 01:56:00,SystemResetWarning,0834.7,4.99,000.00,028.9,027.3,000.0,037.1,030.7,16.5,0000.0,0017.16,0004.40,0003.30
2023-08-16 01:57:00,SystemResetWarning,0834.7,4.99,000.00,028.9,025.6,000.0,037.0,030.3,16.4,0000.0,0017.35,0004.37,0003.29
2023-08-16 01:58:00,SystemResetWarning,0834.7,5.01,000.00,028.8,024.5,000.0,036.9,030.0,16.3,0000.0,0016.48,0004.28,0003.28
2023-08-16 01:59:00,SystemResetWarning,0834.7,5.00,000.00,028.7,024.7,000.0,036.9,029.9,16.2,0000.0,0015.41,0004.25,0003.27
